Flag for Falkland Islands Weather past 2 weeks in Stanley, Falkland Islands

Now
32 °F

Partly cloudy.


Feels Like: 18 °F
Forecast: 32 / 38 °F
Wind: 29 mph from Southeast

Location: Mount Pleasant Airport

Current Time: Jul 6, 2015 at 6:55:17 AM

Latest Report: Jul 6, 2015 at 5:50 AM


Visibility: N/A

Pressure: 29.45 "Hg

Humidity: 87%

Dew point: 28 °F

Location of StanleyLocation

Historic Weather in Stanley — Graph

°F

Stanley temperature yesterday

Maximum temperature yesterday: 34 °F (at 10:50 AM)
Minimum temperature yesterday: 30 °F (at 2:50 AM)
Average temperature yesterday: 33 °F

Past Weeks' High & Low Weather Summary

 TemperatureHumidityPressure
High52 °F (Jun 25, 4:50 PM)100% (Jun 24, 12:50 PM)29.95 "Hg (Jun 24, 12:50 PM)
Low27 °F (Jul 1, 2:50 AM)44% (Jun 25, 4:50 PM)28.82 "Hg (Jun 28, 12:50 PM)
Average37 °F85%29.52 "Hg
* Reported Jun 21 4:50 AM — Jul 6 4:50 AM, Stanley, Weather by CustomWeather, © 2015

Note: Actual official high and low records may vary slightly from our data, if they occured in-between our weather recording intervals... More about our weather records

Advertising

Stanley weather history for previous 24 hours

 ConditionsComfort  
Time TempWeatherWind HumidityBarometerVisibility
4:50 AM
Mon, Jul 6
32 °FLight rain. Passing clouds.29 mph93%29.39 "HgN/A
3:50 AM34 °FLight rain. Mostly cloudy.30 mph87%29.36 "HgN/A
2:50 AM34 °FPassing clouds.28 mph87%29.33 "HgN/A
1:50 AM34 °FPartly cloudy.33 mph87%29.33 "HgN/A
12:50 AM34 °FLight rain. Passing clouds.28 mph93%29.30 "HgN/A
11:50 PM
Sun, Jul 5
34 °FLight rain. Mostly cloudy.24 mph93%29.30 "Hg4 mi
10:50 PM34 °FRain. Mostly cloudy.23 mph93%29.27 "Hg2 mi
9:50 PM34 °FRain. Low clouds.24 mph93%29.27 "Hg2 mi
8:50 PM34 °FRain. Low clouds.25 mph93%29.27 "Hg2 mi
7:50 PM34 °FLight rain. Mostly cloudy.26 mph100%29.30 "Hg3 mi
6:50 PM34 °FLight rain. Mostly cloudy.26 mph100%29.30 "Hg5 mi
5:50 PM34 °FLight rain. Mostly cloudy.23 mph100%29.33 "Hg4 mi
4:50 PM34 °FLight rain. Mostly cloudy.20 mph100%29.36 "Hg2 mi
3:50 PM34 °FDrizzle. Low clouds.22 mph100%29.36 "Hg1 mi
2:50 PM34 °FDrizzle. Mostly cloudy.24 mph100%29.39 "Hg1 mi
1:50 PM34 °FDrizzle. Mostly cloudy.22 mph100%29.42 "Hg1 mi
12:50 PM34 °FDrizzle. Mostly cloudy.20 mph100%29.45 "Hg1 mi
11:50 AM34 °FSunny.17 mph93%29.47 "HgN/A
10:50 AM34 °FMostly cloudy.17 mph87%29.50 "HgN/A
9:50 AM32 °FPartly sunny.15 mph93%29.53 "HgN/A
8:50 AM32 °FMostly cloudy.14 mph93%29.53 "HgN/A
7:50 AM30 °FPartly cloudy.No wind86%29.56 "HgN/A
6:50 AM30 °FPassing clouds.No wind86%29.59 "HgN/A
Weather by CustomWeather, © 2015

See weather overviewHow to use our weather pages